Regional Weather Roundup
Issued by NWS

Home | Current Version | Previous Version | Text Only | Print | Product List | Glossary On
Versions: 1 2 3 4 5 6 7 8 9 10 11 12 13 14 15 16 17 18 19 20 21 22 23 24 25 26 27 28 29 30 31 32 33 34 35 36 37 38 39 40 41 42 43 44 45 46 47 48 49 50
000
ASUS43 KLOT 232308
RWRIL

ILLINOIS REGIONAL WEATHER ROUNDUP
NATIONAL WEATHER SERVICE CHICAGO/ROMEOVILLE IL
500 PM CST THU FEB 23 2017

NOTE: "FAIR" INDICATES FEW OR NO CLOUDS BELOW 12,000 FEET WITH NO
SIGNIFICANT WEATHER AND/OR OBSTRUCTIONS TO VISIBILITY.

* THESE STATIONS ARE NOT UNDER NWS QUALITY CONTROL. THEY ALSO MAY NOT
  REPORT WEATHER SUCH AS PRECIPITATION OR FOG.

ILZ001-002-007-009-015-016-024-240000-
NORTHWEST ILLINOIS

CITY           SKY/WX    TMP DP  RH WIND       PRES   REMARKS
MOLINE         CLOUDY    50  44  80 E18G25    29.63F
STERLING*      CLOUDY    43  41  93 E20G29    29.70F
SAVANNA*       CLOUDY    44  41  89 E15G23    29.71F
$$

ILZ003-004-008-010-011-017-018-240000-
NORTH CENTRAL ILLINOIS

CITY           SKY/WX    TMP DP  RH WIND       PRES   REMARKS
ROCKFORD       LGT RAIN  40  35  83 E13       29.79R
FREEPORT*      CLOUDY    40  38  94 E13G20    29.77F
ROCHELLE*      CLOUDY    40  38  92 E16G23    29.75F
DE KALB*       RAIN      39  37  91 NE20      29.76F WCI  30
PERU*          MOCLDY    42  39  89 E18G25    29.71S
$$

ILZ005-006-012>014-019>023-240000-
NORTHEAST ILLINOIS

CITY           SKY/WX    TMP DP  RH WIND       PRES   REMARKS
CHICAGO-OHARE  LGT RAIN  39  34  82 E12       29.83R WCI  32
CHICAGO-MIDWAY LGT RAIN  39  34  82 NE17      29.81R WCI  30
AURORA         LGT RAIN  40  36  86 NE16      29.75S
LANSING*       LGT RAIN  38  38  97 NE12      29.78F WCI  31
JOLIET*        CLOUDY    41  39  92 NE15      29.76F
WAUKEGAN       CLOUDY    36  33  89 NE14G20   29.82R WCI  27
DUPAGE AIRPORT LGT RAIN  38  33  82 NE18      29.78R WCI  28
KANKAKEE*      DRIZZLE   42  38  86 NE16      29.77R
WHEELING       CLOUDY    37  32  82 NE13G23   29.81F WCI  29
MORRIS*        LGT RAIN  42  38  88 E10G21    29.75S
ROMEOVILLE*    LGT RAIN  39  38  99 NE24      29.74F WCI  28
NORTHERLY ISL    N/A     37  34  89 MISG        N/A
$$

LMZ740>746-240000-
SOUTHERN LAKE MICHIGAN

STATION/POSITION SKY/WX   TEMP    WIND        PRES    VSBY  WAVE
                          AIR SEA DIR/SP/G                  HT/PER
                          (F)     (DEG/KT/KT) (MB)    (MI)  (FT/S)
HARRISON CRIB              37      10/ 14/ 15   N/A
BURNHAM HARBOR             37     360/  9/ 15   N/A
CALUMET HARBOR             37      10/ 10/ 15 1009.3R
BURNS HARBOR               37      40/ 10/ 12 1010.2S
MICHIGAN CITY              36      10/  7/  8   N/A
$$

ILZ025>027-034>036-040-047-049-050-058-095>099-240000-
WEST-CENTRAL ILLINOIS

CITY           SKY/WX    TMP DP  RH WIND       PRES   REMARKS
QUINCY         CLOUDY    54  48  80 E14G23    29.56F
GALESBURG*     FAIR      48  46  90 E18G25    29.59F
MACOMB*        CLOUDY    48  47  95 E18       29.63F
JACKSONVILLE*  FAIR      57  52  82 E16       29.60F
PITTSFIELD*    FAIR      57  52  82 NE12      29.58F
$$

ILZ028>032-037-038-041>044-048-051>054-059>061-240000-
CENTRAL ILLINOIS

CITY           SKY/WX    TMP DP  RH WIND       PRES   REMARKS
PONTIAC        CLOUDY    45  44  95 NE17G23   29.72F
BLOOMINGTON    CLOUDY    49  44  83 NE21      29.68F
DECATUR        FAIR      61  54  77 E9        29.63F
PEORIA         CLOUDY    51  47  86 E16       29.65F
LACON*         RAIN      46  44  93 E13       29.69R
LINCOLN*       CLOUDY    59  53  80 E15       29.64S
SPRINGFIELD    FAIR      59  53  80 E9        29.63S
TAYLORVILLE    MOCLDY    64  54  70 SE10      29.62F
$$

ILZ033-039-045-046-055>057-062-063-240000-
EAST-CENTRAL ILLINOIS

CITY           SKY/WX    TMP DP  RH WIND       PRES   REMARKS
CHAMPAIGN      FAIR      59  53  80 E10       29.67F
RANTOUL*       MOCLDY    58  50  74 NE17      29.67F
MATTOON        FAIR      65  55  70 S9        29.65F
PARIS*         MOCLDY    67  56  69 S6        29.68F
$$

ILZ079-100>102-240000-
SOUTHWEST ILLINOIS

CITY           SKY/WX    TMP DP  RH WIND       PRES   REMARKS
ALTON          MOCLDY    64  55  72 S14G22    29.58F
BELLEVILLE     FAIR      67  59  75 E9        29.57F
CAHOKIA*       FAIR      67  55  65 SE13      29.57F
SPARTA*        MOCLDY    68  55  63 S12G23    29.61F
$$

ILZ064>066-069>071-074>076-080>082-084>086-088>090-092>094-240000-
SOUTH-CENTRAL ILLINOIS

CITY           SKY/WX    TMP DP  RH WIND       PRES   REMARKS
CARBONDALE     FAIR      69  54  58 S16       29.62F
CAIRO*         FAIR      71  55  57 S12G20    29.65S
EFFINGHAM*     FAIR      66  55  66 E8        29.66F
MARION         MOCLDY    73  54  49 S16G26    29.64F
MT. VERNON     FAIR      70  54  56 S16       29.64F
CENTRALIA*     FAIR      70  56  61 S13G20    29.62S
SALEM*         FAIR      70  53  56 SE6       29.63S
METROPOLIS*    FAIR      72  55  54 S3        29.66S
$$

ILZ067-068-072-073-078-083-087-091-240000-
SOUTHEAST ILLINOIS

CITY           SKY/WX    TMP DP  RH WIND       PRES   REMARKS
LAWRENCEVILLE  FAIR      67  56  67 S8        29.68F
FLORA*         FAIR      68  56  65 S9        29.65F
FAIRFIELD*     FAIR      68  56  64 SE3       29.65F
HARRISBURG*    FAIR      70  55  57 S13       29.66S
ROBINSON*      FAIR      66  55  66 S6        29.69F
CARMI*         FAIR      68  56  66 S9        29.66F
$$

ABBREVIATIONS USED IN REMARKS
   TC - TEMPERATURE IN CELSIUS
  WCI - WIND CHILL INDEX
   HX - HEAT INDEX
  VSB - VISIBILITY
$$





USA.gov is the U.S. government's official web portal to all federal, state and local government web resources and services.